Total_Precipitation_Accumulation
0.04 0.04 0.05 0.05 0.09 0.11 0.03 0.00 0.00 0.00 0.00 0.00 0.00 0.00 0.00 0.00 0.00 0.00 0.00 0.00 0.00 0.00 0.00 0.00 0.00 0.00 0.01 0.00 0.00 0.02 0.03 0.09 0.03 0.00 0.00 0.00 0.02 0.09 0.09 0.15 0.09 0.04 0.05 0.02
0.03 0.05 0.08 0.12 0.15 0.12 0.03 0.03 0.01 0.00 0.00 0.00 0.00 0.00 0.00 0.00 0.00 0.00 0.00 0.00 0.00 0.00 0.00 0.01 0.00 0.00 0.01 0.00 0.00 0.01 0.03 0.07 0.06 0.01 0.02 0.01 0.01 0.01 0.02 0.07 0.08 0.05 0.04 0.02
0.04 0.04 0.06 0.09 0.16 0.21 0.07 0.06 0.04 0.00 0.00 0.00 0.00 0.00 0.00 0.00 0.00 0.00 0.00 0.00 0.00 0.00 0.00 0.01 0.03 0.00 0.00 0.00 0.00 0.00 0.05 0.08 0.03 0.03 0.02 0.01 0.00 0.00 0.00 0.04 0.09 0.02 0.01 0.00
0.03 0.02 0.02 0.06 0.14 0.20 0.13 0.12 0.05 0.01 0.01 0.01 0.02 0.06 0.02 0.00 0.00 0.00 0.00 0.01 0.00 0.03 0.05 0.00 0.00 0.00 0.00 0.00 0.00 0.00 0.06 0.11 0.00 0.00 0.00 0.00 0.00 0.00 0.00 0.00 0.00 0.04 0.01 0.00
0.00 0.00 0.01 0.02 0.09 0.18 0.08 0.08 0.05 0.09 0.12 0.06 0.06 0.06 0.02 0.00 0.00 0.01 0.01 0.01 0.00 0.02 0.05 0.01 0.02 0.02 0.02 0.02 0.00 0.01 0.05 0.13 0.02 0.01 0.00 0.00 0.00 0.00 0.00 0.00 0.00 0.00 0.00 0.00
0.00 0.00 0.00 0.00 0.04 0.07 0.08 0.09 0.10 0.16 0.16 0.07 0.08 0.03 0.00 0.01 0.05 0.06 0.01 0.03 0.06 0.05 0.02 0.01 0.00 0.01 0.01 0.01 0.01 0.05 0.12 0.12 0.12 0.06 0.00 0.01 0.01 0.00 0.00 0.00 0.00 0.02 0.03 0.01
0.00 0.00 0.00 0.00 0.01 0.06 0.07 0.05 0.06 0.11 0.12 0.10 0.07 0.03 0.02 0.01 0.01 0.07 0.01 0.03 0.11 0.05 0.01 0.01 0.00 0.00 0.00 0.00 0.00 0.01 0.12 0.16 0.22 0.11 0.02 0.04 0.00 0.00 0.00 0.02 0.06 0.08 0.06 0.03
0.01 0.01 0.00 0.00 0.01 0.01 0.02 0.03 0.05 0.10 0.09 0.05 0.04 0.02 0.02 0.02 0.02 0.02 0.01 0.00 0.01 0.01 0.02 0.05 0.03 0.00 0.00 0.00 0.00 0.00 0.05 0.24 0.32 0.14 0.05 0.01 0.01 0.01 0.01 0.06 0.12 0.13 0.10 0.05
0.01 0.01 0.01 0.01 0.01 0.02 0.01 0.01 0.01 0.03 0.06 0.02 0.01 0.03 0.03 0.04 0.04 0.03 0.03 0.01 0.00 0.00 0.05 0.10 0.07 0.01 0.00 0.00 0.00 0.00 0.04 0.20 0.40 0.15 0.16 0.03 0.04 0.00 0.00 0.03 0.18 0.10 0.11 0.10
0.01 0.01 0.02 0.02 0.02 0.02 0.03 0.01 0.00 0.01 0.03 0.01 0.00 0.01 0.03 0.05 0.08 0.11 0.01 0.00 0.00 0.02 0.07 0.09 0.04 0.02 0.01 0.01 0.01 0.01 0.03 0.11 0.19 0.12 0.27 0.03 0.00 0.00 0.00 0.11 0.19 0.11 0.16 0.14
0.01 0.01 0.01 0.02 0.02 0.03 0.06 0.02 0.01 0.03 0.08 0.01 0.00 0.00 0.01 0.04 0.09 0.11 0.05 0.09 0.03 0.08 0.09 0.08 0.04 0.05 0.05 0.03 0.01 0.04 0.09 0.12 0.06 0.09 0.13 0.03 0.00 0.01 0.07 0.17 0.20 0.15 0.11 0.13
0.01 0.01 0.02 0.02 0.03 0.04 0.08 0.04 0.01 0.04 0.14 0.07 0.01 0.00 0.00 0.01 0.02 0.13 0.23 0.12 0.06 0.11 0.13 0.11 0.14 0.12 0.10 0.05 0.03 0.01 0.03 0.05 0.12 0.10 0.07 0.10 0.19 0.13 0.22 0.14 0.09 0.04 0.02 0.03
0.02 0.02 0.02 0.02 0.03 0.04 0.10 0.07 0.03 0.07 0.20 0.11 0.01 0.00 0.00 0.00 0.00 0.01 0.14 0.07 0.05 0.09 0.07 0.21 0.20 0.15 0.08 0.05 0.03 0.02 0.04 0.07 0.13 0.08 0.09 0.22 0.25 0.16 0.07 0.05 0.02 0.01 0.01 0.01
0.01 0.02 0.02 0.02 0.02 0.03 0.09 0.06 0.03 0.09 0.29 0.30 0.03 0.00 0.00 0.00 0.00 0.00 0.01 0.11 0.18 0.25 0.25 0.36 0.23 0.12 0.05 0.05 0.03 0.07 0.07 0.09 0.09 0.07 0.05 0.09 0.10 0.04 0.06 0.04 0.01 0.00 0.00 0.02
0.01 0.01 0.02 0.02 0.02 0.05 0.07 0.04 0.03 0.05 0.26 0.25 0.06 0.01 0.00 0.00 0.00 0.00 0.00 0.04 0.14 0.20 0.22 0.18 0.10 0.05 0.08 0.09 0.09 0.12 0.05 0.08 0.09 0.10 0.10 0.14 0.11 0.09 0.02 0.01 0.00 0.00 0.01 0.01
0.01 0.01 0.02 0.02 0.04 0.09 0.06 0.09 0.01 0.01 0.08 0.43 0.19 0.01 0.00 0.00 0.00 0.00 0.00 0.02 0.07 0.13 0.16 0.13 0.12 0.07 0.19 0.29 0.16 0.08 0.09 0.12 0.16 0.16 0.13 0.14 0.07 0.05 0.01 0.00 0.01 0.01 0.01 0.01
0.01 0.01 0.03 0.04 0.05 0.09 0.10 0.10 0.08 0.10 0.14 0.28 0.07 0.00 0.00 0.00 0.00 0.00 0.00 0.00 0.04 0.10 0.13 0.11 0.11 0.12 0.28 0.33 0.17 0.09 0.07 0.09 0.12 0.10 0.03 0.06 0.04 0.03 0.01 0.00 0.01 0.02 0.01 0.01
0.01 0.01 0.05 0.04 0.03 0.03 0.06 0.09 0.19 0.21 0.22 0.13 0.04 0.00 0.00 0.00 0.00 0.00 0.00 0.00 0.02 0.07 0.11 0.13 0.12 0.18 0.22 0.16 0.05 0.06 0.06 0.07 0.08 0.06 0.03 0.03 0.02 0.03 0.01 0.00 0.00 0.01 0.00 0.00
0.01 0.01 0.01 0.00 0.00 0.02 0.04 0.05 0.11 0.16 0.23 0.16 0.05 0.01 0.00 0.00 0.00 0.00 0.00 0.01 0.03 0.05 0.06 0.12 0.11 0.14 0.11 0.09 0.08 0.07 0.07 0.07 0.05 0.03 0.02 0.01 0.01 0.02 0.01 0.01 0.00 0.01 0.01 0.01
0.00 0.00 0.00 0.00 0.01 0.02 0.01 0.02 0.01 0.03 0.05 0.07 0.02 0.00 0.00 0.00 0.00 0.01 0.01 0.02 0.02 0.04 0.07 0.08 0.07 0.06 0.09 0.10 0.11 0.10 0.09 0.07 0.06 0.04 0.03 0.03 0.03 0.03 0.04 0.04 0.03 0.03 0.03 0.02
0.00 0.01 0.03 0.01 0.01 0.04 0.03 0.02 0.00 0.01 0.01 0.01 0.00 0.00 0.01 0.00 0.01 0.02 0.02 0.02 0.03 0.04 0.04 0.08 0.05 0.05 0.09 0.10 0.09 0.09 0.09 0.08 0.08 0.08 0.07 0.07 0.06 0.05 0.04 0.04 0.04 0.03 0.03 0.03
0.03 0.06 0.07 0.03 0.01 0.02 0.01 0.00 0.00 0.00 0.02 0.01 0.01 0.01 0.00 0.01 0.00 0.02 0.01 0.02 0.02 0.03 0.02 0.05 0.04 0.07 0.07 0.05 0.06 0.06 0.06 0.06 0.05 0.04 0.04 0.04 0.03 0.04 0.04 0.04 0.04 0.04 0.04 0.03
0.03 0.06 0.05 0.01 0.00 0.00 0.00 0.00 0.02 0.04 0.04 0.03 0.03 0.03 0.01 0.01 0.01 0.01 0.01 0.02 0.02 0.01 0.02 0.02 0.04 0.05 0.04 0.04 0.04 0.05 0.04 0.03 0.02 0.02 0.02 0.02 0.02 0.02 0.02 0.02 0.03 0.03 0.03 0.03
0.03 0.02 0.01 0.01 0.01 0.02 0.04 0.09 0.10 0.06 0.04 0.03 0.04 0.03 0.03 0.01 0.02 0.01 0.01 0.01 0.01 0.01 0.02 0.02 0.03 0.02 0.02 0.03 0.03 0.02 0.02 0.01 0.01 0.01 0.01 0.01 0.01 0.02 0.02 0.02 0.02 0.02 0.03 0.03
0.02 0.02 0.03 0.03 0.05 0.09 0.13 0.10 0.06 0.05 0.03 0.04 0.04 0.03 0.03 0.02 0.03 0.02 0.01 0.01 0.01 0.01 0.02 0.03 0.03 0.02 0.02 0.02 0.02 0.01 0.01 0.01 0.01 0.01 0.01 0.01 0.01 0.01 0.01 0.01 0.02 0.02 0.01 0.01
0.02 0.03 0.03 0.02 0.04 0.06 0.05 0.07 0.07 0.05 0.06 0.05 0.06 0.06 0.03 0.02 0.03 0.03 0.02 0.02 0.02 0.03 0.04 0.04 0.03 0.02 0.02 0.03 0.03 0.02 0.02 0.01 0.01 0.01 0.01 0.01 0.01 0.01 0.01 0.01 0.01 0.02 0.02 0.02
0.08 0.06 0.03 0.06 0.07 0.04 0.05 0.05 0.06 0.07 0.09 0.08 0.08 0.09 0.05 0.05 0.05 0.02 0.02 0.03 0.04 0.05 0.05 0.05 0.04 0.04 0.04 0.04 0.03 0.03 0.02 0.02 0.01 0.01 0.01 0.00 0.00 0.00 0.00 0.00 0.01 0.01 0.02 0.02